Regional Weather Roundup
Issued by NWS New Orleans/Baton Rouge, LA

Home | Current Version | Previous Version | Text Only | Print | Product List | Glossary On
Versions: 1 2 3 4 5 6 7 8 9 10 11 12 13 14 15 16 17 18 19 20 21 22 23 24 25 26 27 28 29 30 31 32 33 34 35 36 37 38 39 40 41 42 43 44 45 46 47 48 49 50
245
ASUS44 KLIX 230305
RWRLIX
NEW ORLEANS REGIONAL WEATHER ROUNDUP
NATIONAL WEATHER SERVICE NEW ORLEANS LA
1000 PM CDT WED OCT 22 2014

NOTE: "FAIR" INDICATES FEW OR NO CLOUDS BELOW 12,000 FEET WITH NO
      SIGNIFICANT WEATHER AND/OR OBSTRUCTIONS TO VISIBILITY.
      SKY/WX - SKY CONDITION AND SIGNIFICANT WEATHER.
      TMP - AIR TEMPERATURE.     DP    - DEWPOINT TEMPERATURE.
      RH  - RELATIVE HUMIDITY.   PRES  - PRESSURE.
      HI  - HEAT INDEX.          WCI   - WIND CHILL INDEX.

*  THESE STATIONS ARE NOT NWS OR FAA STATIONS AND ARE NOT UNDER
   NWS QUALITY CONTROL.

LAZ038-040-048-061>063-065>067-069-230400-
SOUTHEAST LOUISIANA

CITY           SKY/WX    TMP DP  RH WIND       PRES   REMARKS
N.O. AUDUBON   NOT AVBL
N.O. INTL ARPT CLEAR     71  53  52 NE9       30.07R
N.O. LAKEFRONT LGT RAIN  72  55  55 NE18      30.08R
N.O. DOWNTOWN*   N/A     72  52  49 N6        30.08R
SLIDELL        CLEAR     58  53  84 CALM      30.08R
BATON ROUGE    CLEAR     60  54  80 N5        30.09R
BOOTHVILLE     CLEAR     70  62  76 N3        30.06R
BELLE CHASSE   CLEAR     58  54  86 N3        30.07R
BOGALUSA*        N/A     54  49  85 CALM      30.11R
NEW ROADS*       N/A     60  54  78 NE5       30.10R
GONZALES*        N/A     59  59 100 N3        30.08R
HAMMOND*       CLEAR     57  50  77 N5        30.11R
HOUMA*         CLEAR     58  56  93 CALM      30.07R
PORT FOURCHON* CLEAR     72  61  68 E7        30.09R

$$

MSZ070-080>082-230400-
SOUTHERN MISSISSIPPI

CITY           SKY/WX    TMP DP  RH WIND       PRES   REMARKS
MCCOMB         CLEAR     61  50  67 N5        30.11R
GULFPORT       CLEAR     63  49  60 NE6       30.08R
BILOXI         CLEAR     63  50  62 NE8       30.08R
PASCAGOULA     CLEAR     56  48  74 NE3       30.08R

$$

COASTAL OBSERVATIONS
LAKE AND NEARSHORE STATIONS

STATION/POSITION TIME  TEMP    WIND        PRES    WAVE
                       AIR SEA DIR/SP/G            HT/PER
                 (UTC) (F)     (DEG/KT/KT) (MB)    (FT/S)
PASCAGOULA       0300   66      40/  9/ 14 1018.0
WAVELAND YACHT   0300   67      40/  9/ 14 1017.8
GRAND ISLE       0300   71 75   60/  5/  6 1018.4
SOUTHWEST PASS   0300   71 82              1017.9
NEW CANAL        0300   72 72   50/ 14/ 16 1018.6
SHELL BEACH      0300   72 70   50/ 13/ 15 1018.1

OFFSHORE STATIONS

STATION/POSITION TIME  TEMP    WIND        PRES    WAVE
                       AIR SEA DIR/SP/G            HT/PER
                 (UTC) (F)     (DEG/KT/KT) (MB)    (FT/S)
64 S DAUPHIN ISL 0153   75 79   40/ 14/ 16 1017.9    3/ 5

$$




USA.gov is the U.S. government's official web portal to all federal, state and local government web resources and services.